Belize, Belize

12:46 PM CST on May 25, 2017 (GMT -0600)
Philip S W Goldson International

Weather History for MZBZ - May, 2014

Change the Weather History Date:

Tuesday, May 6, 2014

  Actual Average Record
Temperature  
Mean Temperature 81 °F -  
Max Temperature 87 °F 90 °F 91 °F (2003)
Min Temperature 75 °F 76 °F 69 °F (2017)
Cooling Degree Days 16    
Growing Degree Days 31 (Base 50)    
Moisture  
Dew Point 75 °F    
Average Humidity 75    
Maximum Humidity 100    
Minimum Humidity 56    
Precipitation  
Precipitation 0.00 in 0.18 in - ()
Sea Level Pressure  
Sea Level Pressure 29.89 in    
Wind  
Wind Speed 3 mph ()    
Max Wind Speed 8 mph    
Max Gust Speed -    
Visibility 8.2 miles    
Events      
Averages and records for this station are not official NWS values.
T = Trace of Precipitation, MM = Missing Value Source: Averaged Metar Reports

Daily Weather History Graph

Daily Weather History Graph

Search for Another Location

Airport or City:

Trip Planner

Search our weather history database for the weather conditions in past years. The results will help you decide how hot, cold, wet, or windy it might be!

Date:

Astronomy

May. 06, 2014 Rise Set
Actual Time 5:24 AM CST 6:15 PM CST
Civil Twilight 5:01 AM CST 6:38 PM CST
Nautical Twilight 4:34 AM CST 7:05 PM CST
Astronomical Twilight 4:07 AM CST 7:32 PM CST
Moon 11:30 AM CST (5/6) No Moon Set
Length of Visible Light 13h 36m
Length of Day
12h 50m
Waxing Crescent, 46% of the Moon is Illuminated
May 6
Waxing Crescent
May 6
First Quarter
May 14
Full
May 21
Last Quarter
May 28
New

Hourly Weather History & Observations

Time (CST) Temp. Heat Index Dew Point Humidity Pressure Visibility Wind Dir Wind Speed Gust Speed Precip Events Conditions
12:00 AM 77 °F - 76 °F 94% 29.93 in 12 mi Calm Calm - -   Scattered Clouds
6:00 AM 76 °F - 74 °F 93% 29.92 in 12 mi Calm Calm - -   Scattered Clouds
6:00 AM 75.2 °F - 75.2 °F 100% 29.91 in 6.2 mi Calm Calm - N/A   Partly Cloudy
7:00 AM 78.8 °F - 77.0 °F 94% 29.93 in 6.2 mi Calm Calm - N/A   Partly Cloudy
8:00 AM 80.6 °F 87.1 °F 77.0 °F 89% 29.93 in 6.2 mi Calm Calm - N/A   Mostly Cloudy
9:00 AM 84 °F - 74 °F 66% 29.94 in 12 mi SSE 5.8 mph - -   Mostly Cloudy
9:00 AM 84.2 °F 92.3 °F 75.2 °F 74% 29.93 in 6.2 mi SSE 5.8 mph - N/A   Mostly Cloudy
10:00 AM 86.0 °F 95.1 °F 75.2 °F 70% 29.93 in 6.2 mi SSE 6.9 mph - N/A   Mostly Cloudy
11:00 AM 86.0 °F 93.4 °F 73.4 °F 66% 29.91 in 6.2 mi SE 6.9 mph - N/A   Mostly Cloudy
12:00 PM 87 °F - 73 °F 56% 29.90 in 12 mi ESE 6.9 mph - -   Mostly Cloudy
12:00 PM 87.8 °F 95.6 °F 73.4 °F 62% 29.90 in 6.2 mi ESE 6.9 mph - N/A   Mostly Cloudy
1:00 PM 86.0 °F 95.1 °F 75.2 °F 70% 29.87 in 6.2 mi SE 6.9 mph - N/A   Mostly Cloudy
2:00 PM 87.8 °F 97.6 °F 75.2 °F 66% 29.86 in 6.2 mi SE 6.9 mph - N/A   Mostly Cloudy
3:00 PM 85 °F - 75 °F 66% 29.86 in 12 mi East 8.1 mph - -   Mostly Cloudy
3:00 PM 86.0 °F 95.1 °F 75.2 °F 70% 29.85 in 6.2 mi East 8.1 mph - N/A   Mostly Cloudy
4:00 PM 84.2 °F 90.9 °F 73.4 °F 70% 29.84 in 6.2 mi ESE 8.1 mph - N/A   Mostly Cloudy
5:00 PM 84.2 °F 90.9 °F 73.4 °F 70% 29.84 in 6.2 mi ESE 6.9 mph - N/A   Scattered Clouds
6:00 PM 83 °F - 74 °F 68% 29.86 in 12 mi ESE 5.8 mph - -   Partly Cloudy
6:00 PM 82.4 °F 88.2 °F 73.4 °F 74% 29.85 in 6.2 mi ESE 5.8 mph - N/A   Scattered Clouds
9:00 PM 80 °F - 74 °F 76% 29.89 in 12 mi East 4.6 mph - -   Scattered Clouds